Location: Newark
(20.0000°S, 47.0000°E)
Time: 11:31:13
(UTC+00:00)

N. Korean satellite - Pass Details

Date: 16 August 2020
Orbit: 455 x 503 km, 97.2° (Epoch: 20 September)

Event Time Altitude Azimuth Distance (km) Brightness Sun altitude
Rises 01:06:38 0° 44° (NE) 2,579 10.9 -30.1°
Reaches altitude 10° 01:09:16 10° 65° (ENE) 1,708 10.1 -29.5°
Maximum altitude 01:11:40 17° 106° (ESE) 1,349 9.5 -28.9°
Drops below altitude 10° 01:14:05 10° 146° (SSE) 1,725 9.6 -28.3°
Enters shadow 01:15:57 - 163° (SSE) 2,322 10.1 -27.9°
